Flag for Colombia Weather past 2 weeks in Buenaventura, Colombia

Now
68 °F

Passing clouds.


Feels Like: 68 °F
Forecast: 74 / 89 °F
Wind: 5 mph from Southwest

Location: Cali / Alfonso Bonillaaragon

Current Time: Oct 20, 2014 at 10:16:44 PM

Latest Report: Oct 20, 2014 at 9:00 PM


Visibility: N/A

Pressure: 30.03 "Hg

Humidity: 88%

Dew point: 64 °F

Location of BuenaventuraLocation

Historic Weather in Buenaventura — Graph

°F

Buenaventura temperature yesterday

Maximum temperature yesterday: 82 °F (at 3:00 PM)
Minimum temperature yesterday: 66 °F (at 6:00 AM)
Average temperature yesterday: 74 °F

Past Weeks' High & Low Weather Summary

 TemperatureHumidityPressure
High91 °F (Oct 16, 2:00 PM)94% (Oct 6, 4:00 AM)30.11 "Hg (Oct 6, 4:00 AM)
Low64 °F (Oct 12, 5:00 AM)33% (Oct 16, 1:00 PM)29.81 "Hg (Oct 18, 3:00 PM)
Average75 °F74%29.98 "Hg
* Reported Oct 5 9:00 PM — Oct 20 9:00 PM, Buenaventura, Weather by CustomWeather, © 2014

Note: Actual official high and low records may vary slightly from our data, if they occured in-between our weather recording intervals... More about our weather records

Advertising

Buenaventura weather history for previous 24 hours

 ConditionsComfort  
Time TempWeatherWind HumidityBarometerVisibility
9:00 PM
Oct 20
68 °FPassing clouds.5 mph88%30.03 "HgN/A
8:00 PM70 °FPassing clouds.5 mph83%30.01 "HgN/A
7:00 PM72 °FScattered showers. Passing clouds.3 mph78%29.96 "Hg6 mi
6:00 PM70 °FScattered showers. Partly cloudy.6 mph83%29.94 "Hg5 mi
5:00 PM77 °FThunderstorms. Cloudy.5 mph69%29.92 "HgN/A
4:00 PM82 °FScattered showers. Broken clouds.12 mph55%29.86 "HgN/A
3:00 PM84 °FScattered showers. Broken clouds.12 mph51%29.87 "HgN/A
2:00 PM84 °FScattered showers. Broken clouds.12 mph51%29.89 "HgN/A
1:00 PM84 °FBroken clouds.7 mph51%29.94 "HgN/A
12:00 PM82 °FScattered clouds.3 mph51%29.99 "HgN/A
11:00 AM81 °FScattered clouds.3 mph58%30.02 "HgN/A
10:00 AM77 °FScattered clouds.5 mph65%30.05 "HgN/A
9:00 AM73 °FPartly sunny.5 mph78%30.06 "HgN/A
8:00 AM72 °FPartly sunny.5 mph83%30.05 "Hg5 mi
7:00 AM70 °FScattered showers. Scattered clouds.3 mph88%30.02 "Hg5 mi
6:00 AM70 °FScattered showers. Mostly cloudy.2 mph88%30.00 "Hg6 mi
5:00 AM70 °FMostly cloudy.2 mph88%29.99 "Hg6 mi
4:00 AM70 °FScattered showers. Mostly cloudy.7 mph88%29.98 "Hg6 mi
3:00 AM72 °FScattered showers. Mostly cloudy.3 mph83%29.98 "Hg6 mi
2:00 AM72 °FMostly cloudy.6 mph83%29.99 "HgN/A
1:00 AM72 °FOvercast.3 mph78%30.00 "HgN/A
12:00 AM72 °FMostly cloudy.No wind88%30.03 "HgN/A
10:00 PM
Oct 19
73 °FDrizzle. Overcast.No wind83%30.04 "HgN/A
Weather by CustomWeather, © 2014

See weather overviewHow to use our weather pages